Location: Hilton Head Island
(32.2163°N, 80.7526°W)
Time: 16:12:03
(UTC-05:00)

Explorer 11/Cluster Stage 4 - Pass Details

Date: 22 February 2026
Orbit: 463 x 1176 km, 28.8° (Epoch: 6 March)

Event Time Altitude Azimuth Distance (km) Brightness Sun altitude
Rises 15:04:07 0° 269° (W) 2,785 10.0 35.0°
Reaches altitude 10° 15:06:43 10° 259° (W) 1,789 9.4 34.6°
Maximum altitude 15:10:18 31° 196° (SSW) 875 8.2 34.1°
Drops below altitude 10° 15:13:35 10° 132° (SE) 1,618 8.2 33.6°
Sets 15:15:50 0° 121° (ESE) 2,471 9.0 33.2°
